Location: Burtsch�tz
(51.0528°N, 12.1764°E)
Time: 07:55:18
(UTC+00:00)

H-2A R/B - Pass Details

Date: 29 October 2020
Orbit: 577 x 656 km, 98.5° (Epoch: 01 December)

Event Time Altitude Azimuth Distance (km) Brightness Sun altitude
Rises 16:58:31 0° 9° (N) 2,852 5.3 -11.2°
Reaches altitude 10° 17:00:47 10° 3° (N) 1,934 4.5 -11.6°
Maximum altitude 17:04:43 42° 293° (WNW) 848 3.3 -12.2°
Drops below altitude 10° 17:08:34 10° 223° (SW) 1,894 5.3 -12.8°
Sets 17:10:46 0° 216° (SW) 2,784 6.1 -13.1°
